When you browse on this site, cookies collect data to enhance your experience and personalize the content and advertising you see.
Visit our Privacy Policy to learn more. By continuing to use the site, you agree to this use of cookies and data.

Meteo pe oră la Miskolc

Astăzi, 5 August, Miercuri

Timp Temperatura Precipitaţii Vânt Presiune Umiditate
00:00 +20°C° 1.2 mm 3 m/s 744 mmHg 91%
01:00 +20°C° 0 mm 4 m/s 745 mmHg 92%
02:00 +19°C° 0.4 mm 4 m/s 745 mmHg 92%
03:00 +19°C° 0.4 mm 3 m/s 745 mmHg 91%
04:00 +19°C° 0.4 mm 3 m/s 745 mmHg 91%
05:00 +19°C° 0 mm 4 m/s 745 mmHg 89%
06:00 +20°C° 0 mm 4 m/s 745 mmHg 87%
07:00 +20°C° 0 mm 5 m/s 746 mmHg 85%
08:00 +21°C° 0 mm 6 m/s 746 mmHg 80%
09:00 +22°C° 0 mm 6 m/s 746 mmHg 74%
10:00 +24°C° 0 mm 7 m/s 747 mmHg 69%
11:00 +24°C° 0 mm 7 m/s 747 mmHg 67%
12:00 +26°C° 0 mm 6 m/s 747 mmHg 66%
13:00 +26°C° 0 mm 6 m/s 746 mmHg 64%
14:00 +26°C° 0 mm 6 m/s 746 mmHg 65%
15:00 +26°C° 0 mm 6 m/s 746 mmHg 65%
16:00 +26°C° 0 mm 6 m/s 746 mmHg 66%
17:00 +24°C° 0 mm 6 m/s 746 mmHg 69%
18:00 +22°C° 0 mm 6 m/s 747 mmHg 72%
19:00 +21°C° 0 mm 6 m/s 747 mmHg 75%
20:00 +21°C° 0.1 mm 6 m/s 747 mmHg 77%
21:00 +20°C° 0.1 mm 5 m/s 748 mmHg 79%
22:00 +20°C° 0.1 mm 5 m/s 748 mmHg 81%
23:00 +20°C° 0 mm 5 m/s 748 mmHg 83%

Mâine, 6 August, Joi

Timp Temperatura Precipitaţii Vânt Presiune Umiditate
00:00 +20°C° 0 mm 4 m/s 748 mmHg 84%
01:00 +19°C° 0 mm 4 m/s 748 mmHg 86%
02:00 +19°C° 0 mm 4 m/s 748 mmHg 88%
03:00 +19°C° 0 mm 4 m/s 748 mmHg 89%
04:00 +19°C° 0 mm 4 m/s 748 mmHg 91%
05:00 +20°C° 0 mm 4 m/s 748 mmHg 87%
06:00 +21°C° 0 mm 4 m/s 749 mmHg 82%
07:00 +22°C° 0 mm 4 m/s 749 mmHg 78%
08:00 +25°C° 0 mm 4 m/s 749 mmHg 70%
09:00 +27°C° 0 mm 4 m/s 750 mmHg 62%
10:00 +29°C° 0 mm 4 m/s 750 mmHg 54%
11:00 +29°C° 0 mm 4 m/s 750 mmHg 51%
12:00 +30°C° 0 mm 4 m/s 750 mmHg 47%
13:00 +32°C° 0 mm 4 m/s 750 mmHg 43%
14:00 +32°C° 0 mm 4 m/s 750 mmHg 44%
15:00 +31°C° 0 mm 3 m/s 750 mmHg 46%
16:00 +31°C° 0 mm 3 m/s 750 mmHg 47%
17:00 +29°C° 0 mm 3 m/s 750 mmHg 52%
18:00 +27°C° 0 mm 2 m/s 750 mmHg 58%
19:00 +25°C° 0 mm 2 m/s 750 mmHg 64%
20:00 +25°C° 0 mm 2 m/s 750 mmHg 66%
21:00 +24°C° 0 mm 3 m/s 750 mmHg 68%
22:00 +22°C° 0 mm 3 m/s 751 mmHg 71%
23:00 +22°C° 0 mm 3 m/s 751 mmHg 72%

Poimâine, 7 August, Vineri

Timp Temperatura Precipitaţii Vânt Presiune Umiditate
00:00 +21°C° 0 mm 3 m/s 751 mmHg 74%
01:00 +21°C° 0 mm 2 m/s 751 mmHg 76%
02:00 +20°C° 0 mm 2 m/s 751 mmHg 76%
03:00 +20°C° 0 mm 2 m/s 751 mmHg 76%
04:00 +20°C° 0 mm 2 m/s 751 mmHg 77%
05:00 +21°C° 0 mm 2 m/s 751 mmHg 74%
06:00 +23°C° 0 mm 2 m/s 751 mmHg 71%
07:00 +25°C° 0 mm 2 m/s 752 mmHg 68%
08:00 +26°C° 0 mm 2 m/s 752 mmHg 62%
09:00 +28°C° 0 mm 3 m/s 752 mmHg 56%
10:00 +30°C° 0 mm 3 m/s 752 mmHg 50%
11:00 +30°C° 0 mm 3 m/s 752 mmHg 47%
12:00 +31°C° 0 mm 3 m/s 751 mmHg 45%
13:00 +33°C° 0 mm 3 m/s 751 mmHg 42%
14:00 +33°C° 0 mm 3 m/s 751 mmHg 43%
15:00 +33°C° 0 mm 3 m/s 751 mmHg 45%
16:00 +31°C° 0 mm 3 m/s 750 mmHg 46%
17:00 +29°C° 0 mm 2 m/s 750 mmHg 52%
18:00 +27°C° 0 mm 2 m/s 750 mmHg 59%
19:00 +25°C° 0 mm 1 m/s 750 mmHg 65%
20:00 +25°C° 0 mm 2 m/s 750 mmHg 66%
21:00 +24°C° 0 mm 2 m/s 750 mmHg 67%
22:00 +23°C° 0 mm 2 m/s 751 mmHg 69%
23:00 +23°C° 0 mm 2 m/s 751 mmHg 72%

8 August, Sâmbătă

Timp Temperatura Precipitaţii Vânt Presiune Umiditate
00:00 +21°C° 0 mm 2 m/s 751 mmHg 76%
01:00 +21°C° 0 mm 2 m/s 751 mmHg 79%
02:00 +21°C° 0 mm 2 m/s 751 mmHg 80%
03:00 +20°C° 0 mm 2 m/s 750 mmHg 81%
04:00 +20°C° 0 mm 2 m/s 750 mmHg 82%
05:00 +21°C° 0 mm 2 m/s 750 mmHg 79%
06:00 +23°C° 0 mm 2 m/s 750 mmHg 75%
07:00 +25°C° 0 mm 2 m/s 751 mmHg 71%
08:00 +26°C° 0 mm 2 m/s 751 mmHg 65%
09:00 +28°C° 0 mm 2 m/s 751 mmHg 59%
10:00 +30°C° 0 mm 2 m/s 751 mmHg 53%
11:00 +31°C° 0 mm 2 m/s 750 mmHg 50%
12:00 +32°C° 0 mm 1 m/s 750 mmHg 48%
13:00 +32°C° 0 mm 1 m/s 750 mmHg 45%
14:00 +32°C° 0 mm 1 m/s 749 mmHg 44%
15:00 +32°C° 0 mm 1 m/s 749 mmHg 44%
16:00 +32°C° 0 mm 1 m/s 749 mmHg 43%
17:00 +31°C° 0 mm 1 m/s 749 mmHg 50%
18:00 +29°C° 0 mm 1 m/s 749 mmHg 56%
19:00 +27°C° 0 mm 1 m/s 749 mmHg 63%
20:00 +26°C° 0.4 mm 1 m/s 749 mmHg 68%
21:00 +24°C° 0.4 mm 2 m/s 749 mmHg 74%
22:00 +23°C° 0.4 mm 2 m/s 749 mmHg 79%
23:00 +21°C° 0.2 mm 2 m/s 749 mmHg 82%

9 August, Duminică

Timp Temperatura Precipitaţii Vânt Presiune Umiditate
00:00 +21°C° 0.2 mm 2 m/s 749 mmHg 84%
01:00 +20°C° 0.2 mm 2 m/s 749 mmHg 86%
02:00 +20°C° 0 mm 2 m/s 748 mmHg 87%
03:00 +19°C° 0 mm 2 m/s 748 mmHg 88%
04:00 +19°C° 0 mm 2 m/s 748 mmHg 88%
05:00 +20°C° 0 mm 2 m/s 748 mmHg 84%
06:00 +21°C° 0 mm 2 m/s 748 mmHg 80%
07:00 +23°C° 0 mm 2 m/s 749 mmHg 76%
08:00 +25°C° 0 mm 2 m/s 749 mmHg 69%
09:00 +26°C° 0 mm 2 m/s 749 mmHg 62%
10:00 +28°C° 0 mm 3 m/s 749 mmHg 55%
11:00 +29°C° 0 mm 2 m/s 748 mmHg 52%
12:00 +30°C° 0 mm 2 m/s 748 mmHg 49%
13:00 +30°C° 0 mm 2 m/s 748 mmHg 46%
14:00 +30°C° 0 mm 2 m/s 748 mmHg 46%
15:00 +30°C° 0 mm 1 m/s 747 mmHg 46%
16:00 +30°C° 0 mm 1 m/s 747 mmHg 46%
17:00 +29°C° 0 mm 1 m/s 747 mmHg 52%
18:00 +27°C° 0 mm 1 m/s 747 mmHg 59%
19:00 +25°C° 0 mm 1 m/s 747 mmHg 65%
20:00 +24°C° 0 mm 1 m/s 747 mmHg 68%
21:00 +24°C° 0 mm 2 m/s 748 mmHg 71%
22:00 +22°C° 0 mm 3 m/s 748 mmHg 74%
23:00 +22°C° 0 mm 3 m/s 748 mmHg 75%

10 August, Luni

Timp Temperatura Precipitaţii Vânt Presiune Umiditate
00:00 +21°C° 0 mm 3 m/s 748 mmHg 77%
01:00 +21°C° 0 mm 2 m/s 748 mmHg 79%
02:00 +20°C° 0 mm 2 m/s 747 mmHg 80%
03:00 +20°C° 0 mm 2 m/s 747 mmHg 80%
04:00 +20°C° 0 mm 2 m/s 747 mmHg 81%
05:00 +21°C° 0 mm 2 m/s 748 mmHg 77%
06:00 +23°C° 0 mm 2 m/s 748 mmHg 74%
07:00 +24°C° 0 mm 3 m/s 748 mmHg 70%
08:00 +26°C° 0 mm 3 m/s 748 mmHg 64%
09:00 +27°C° 0 mm 3 m/s 748 mmHg 58%
10:00 +29°C° 0 mm 3 m/s 748 mmHg 52%
11:00 +30°C° 0 mm 3 m/s 748 mmHg 49%
12:00 +30°C° 0 mm 3 m/s 747 mmHg 46%
13:00 +31°C° 0 mm 3 m/s 747 mmHg 43%
14:00 +31°C° 0 mm 3 m/s 747 mmHg 45%
15:00 +31°C° 0 mm 3 m/s 747 mmHg 46%
16:00 +30°C° 0 mm 3 m/s 747 mmHg 47%
17:00 +28°C° 0 mm 3 m/s 747 mmHg 53%
18:00 +26°C° 0 mm 3 m/s 747 mmHg 60%
19:00 +25°C° 0 mm 3 m/s 747 mmHg 66%
20:00 +24°C° 0 mm 3 m/s 747 mmHg 68%
21:00 +22°C° 0 mm 3 m/s 748 mmHg 71%
22:00 +21°C° 0 mm 3 m/s 748 mmHg 74%
23:00 +21°C° 0 mm 3 m/s 748 mmHg 76%
Arată mai mult